TIANWANG 1A (TW-1A)
1 40928U 15051D   19277.80478431  .00003187  00000-0  78366-4 0  9999
2 40928  97.1371 306.7013 0012296  45.8362  41.2226 15.41285581225827
LAPAN A2
1 40931U 15052B   19277.68810040  .00001119  00000-0  66750-4 0  9993
2 40931   6.0103   6.7085 0014587 253.0396 106.7129 14.76620696217258
LQSAT
1 40958U 15057A   19277.76964320 -.00000001 +00000-0 +74318-5 0  9997
2 40958 097.8887 343.9912 0016835 253.0777 106.8586 14.73090574214720
CHUBUSAT 2
1 41338U 16012B   19277.88118883 +.00000350 +00000-0 +20533-4 0  9995
2 41338 031.0025 177.1966 0013655 095.3206 264.8988 15.00187627199173
CHUBUSAT 3
1 41339U 16012C   19277.90462990 +.00000388 +00000-0 +23442-4 0  9993
2 41339 031.0106 175.0019 0013375 103.0763 257.1366 15.00360688199179
OUFTI-1
1 41458U 16025C   19277.89572155 +.00000679 +00000-0 +38667-4 0  9990
2 41458 098.1003 010.2416 0165634 353.7291 006.1858 15.06057661188859
E-STAR-2
1 41459U 16025D   19277.80550327  .00001585  00000-0  84631-4 0  9998
2 41459  98.1008   9.7463 0166811 355.3293   4.6357 15.05683764188819
AAUSAT 4
1 41460U 16025E   19277.84275392  .00001885  00000-0  97625-4 0  9990
2 41460  98.0951  11.3057 0156507 346.9983  12.7199 15.07660722188969
NUSAT 1
1 41557U 16033B   19277.88539315 +.00001210 +00000-0 +47809-4 0  9999
2 41557 097.4151 004.7527 0012101 276.2003 083.7857 15.27412965186602
BEESAT 4
1 41619U 16040W   19277.84209648 +.00001255 +00000-0 +55735-4 0  9991
2 41619 097.3566 337.9987 0011440 012.0916 348.0593 15.23339579170326
PRATHAM
1 41783U 16059A   19277.79778338  .00000034  00000-0  15726-4 0  9994
2 41783  98.0560 334.9284 0034458  45.8895 314.5133 14.63011867161352
ALSAT 1N
1 41789U 16059G   19277.89913120 +.00000088 +00000-0 +25657-4 0  9994
2 41789 098.0593 337.2606 0028955 035.1206 325.1887 14.64265231161486
NAYIF 1
1 42017U 17008BX  19277.72239098 +.00001467 +00000-0 +60267-4 0  9999
2 42017 097.3929 343.6585 0007346 137.8886 222.2918 15.25758678146393
MAX VALIER SAT
1 42778U 17036P   19277.87099567 +.00000867 +00000-0 +40746-4 0  9998
2 42778 097.3431 333.0956 0011859 196.9278 163.1564 15.22161917126697
